This demonstration page uses our WeatherBlox Daily Observations layout. Learn more.

Left ArrowRight Arrow

39.08367, -84.50855

Hourly Observations for April 14, 2018

Temp ( °F °C ) Dew Point ( °F °C ) Humidity (%) Winds ( mph kmh ) Pressure ( in mb ) Visibility ( mi km ) Precip ( " mm )
12:53 am 00:53 Clear 56 13.3 51 10.6 84 84 SSW 3 6 29.84 1011 10 16 N/A
1:53 am 01:53 Clear 55 12.8 50 10 83 83 SW 3 6 29.83 1010 10 16 N/A
2:53 am 02:53 Clear 61 16.1 47 8.3 60 60 VRB 3 6 29.80 1009 10 16 N/A
3:53 am 03:53 Clear 58 14.4 48 8.9 70 70 SW 5 7 29.79 1009 10 16 N/A
4:53 am 04:53 Clear 63 17.2 50 10 63 63 S 8 13 29.78 1008 10 16 N/A
5:53 am 05:53 Clear 59 15 49 9.4 69 69 SSW 5 7 29.78 1008 10 16 N/A
6:53 am 06:53 Mostly Cloudy 61 16.1 50 10 67 67 VRB 3 6 29.77 1008 10 16 N/A
7:53 am 07:53 Mostly Sunny 62 16.7 51 10.6 67 67 SW 3 6 29.78 1008 10 16 N/A
8:53 am 08:53 Cloudy 64 17.8 54 12.2 70 70 SE 5 7 29.80 1009 10 16 N/A
9:53 am 09:53 Partly Cloudy 67 19.4 55 12.8 66 66 SSW 3 6 29.80 1009 10 16 N/A
10:53 am 10:53 Cloudy 72 22.2 57 13.9 59 59 SSW 16 26 29.79 1009 10 16 N/A
11:45 am 11:45 Cloudy with Nearby Thunderstorms 67 19.4 59 15 76 76 SW 10 17 29.80 1009 5 8 0.03 0.76
11:53 am 11:53 Cloudy with Nearby Thunderstorms 66 18.9 60 15.6 81 81 WSW 9 15 29.81 1009 8 13 0.03 0.76
12:00 pm 12:00 Cloudy with Light Rain 65 18.3 61 16.1 87 87 W 13 20 29.83 1010 6 10 0.01 0.25
12:53 pm 12:53 Cloudy with Light Rain 63 17.2 61 16.1 93 93 W 10 17 29.83 1010 5 8 0.04 1.02
1:16 pm 13:16 Cloudy with Light Rain 62 16.7 61 16.1 96 96 W 9 15 29.83 1010 6 10 0.01 0.25
1:46 pm 13:46 Cloudy with Light Rain 63 17.2 61 16.1 93 93 N N/A 29.83 1010 10 16 0.01 0.25
1:53 pm 13:53 Cloudy 64 17.8 62 16.7 93 93 N N/A 29.81 1010 10 16 0.01 0.25
2:53 pm 14:53 Mostly Cloudy with Light Rain 64 17.8 61 16.1 90 90 SE 10 17 29.80 1009 10 16 N/A
3:53 pm 15:53 Partly Cloudy 67 19.4 61 16.1 81 81 SSW 10 17 29.82 1010 10 16 N/A
4:53 pm 16:53 Mostly Cloudy with Light Rain 66 18.9 61 16.1 84 84 S 15 24 29.81 1009 10 16 N/A
5:53 pm 17:53 Mostly Cloudy 66 18.9 60 15.6 81 81 SSW 7 11 29.78 1008 10 16 0.01 0.25
6:53 pm 18:53 Mostly Cloudy with Light Rain 65 18.3 60 15.6 84 84 SSE 7 11 29.77 1008 10 16 N/A
7:53 pm 19:53 Mostly Cloudy with Light Rain 64 17.8 61 16.1 90 90 S 12 19 29.81 1009 10 16 0.01 0.25
8:53 pm 20:53 Cloudy 63 17.2 60 15.6 90 90 S 10 17 29.82 1010 10 16 N/A
9:53 pm 21:53 Cloudy 63 17.2 60 15.6 90 90 S 10 17 29.84 1010 10 16 N/A
10:53 pm 22:53 Cloudy with Light Rain 62 16.7 60 15.6 93 93 S 10 17 29.85 1011 7 11 0.03 0.76
11:53 pm 23:53 Cloudy with Rain 61 16.1 60 15.6 97 97 S 10 17 29.84 1011 5 8 0.11 2.79

Powered by AerisWeather